Flag Weather past 2 weeks in Gronau (Westfalen), North Rhine-Westphalia, Germany

Now
32 °F

Clear.


Feels Like: 32 °F
Forecast: 36 / 44 °F
Wind: 1 mph from South

Location: Twenthe

Current Time: Nov 25, 2014 at 3:09:42 AM

Latest Report: Nov 25, 2014 at 2:00 AM


Visibility: 0 mi

Pressure: 30.34 "Hg

Humidity: 96%

Dew point: 31 °F

Location of Gronau (Westfalen)Location

Historic Weather in Gronau (Westfalen) — Graph

°F

Gronau (Westfalen) temperature yesterday

Maximum temperature yesterday: 54 °F (at 12:00 AM)
Minimum temperature yesterday: 34 °F (at 11:00 PM)
Average temperature yesterday: 46 °F

Past Weeks' High & Low Weather Summary

 TemperatureHumidityPressure
High59 °F (Nov 23, 2:00 PM)100% (Nov 13, 2:00 AM)30.36 "Hg (Nov 13, 2:00 AM)
Low31 °F (Nov 21, 4:00 AM)66% (Nov 10, 3:00 PM)29.47 "Hg (Nov 16, 2:00 PM)
Average47 °F88%29.91 "Hg
* Reported Nov 10 1:00 AM — Nov 25 1:00 AM, Gronau (Westfalen), Weather by CustomWeather, © 2014

Note: Actual official high and low records may vary slightly from our data, if they occured in-between our weather recording intervals... More about our weather records

Advertising

Gronau (Westfalen) weather history for previous 24 hours

 ConditionsComfort  
Time TempWeatherWind HumidityBarometerVisibility
1:00 AM
Nov 25
33 °FClear.1 mph99%30.34 "Hg1 mi
12:00 AM35 °FClear.1 mph98%30.34 "Hg1 mi
11:00 PM
Nov 24
34 °FPassing clouds.N/A95%30.34 "Hg1 mi
10:00 PM39 °FPassing clouds.1 mph91%30.34 "Hg8 mi
9:00 PM44 °FOvercast.1 mph86%30.34 "Hg14 mi
8:00 PM44 °FOvercast.1 mph88%30.33 "Hg14 mi
7:00 PM43 °FOvercast.1 mph89%30.32 "Hg16 mi
6:00 PM42 °FOvercast.1 mph92%30.31 "Hg17 mi
5:00 PM44 °FPassing clouds.2 mph81%30.29 "Hg19 mi
4:00 PM46 °FPartly sunny.3 mph77%30.29 "Hg19 mi
3:00 PM49 °FScattered clouds.3 mph69%30.28 "Hg19 mi
2:00 PM50 °FPassing clouds.3 mph67%30.27 "Hg19 mi
1:00 PM50 °FSunny.5 mph67%30.27 "Hg16 mi
12:00 PM50 °FSunny.5 mph70%30.26 "Hg14 mi
11:00 AM48 °FSunny.3 mph78%30.26 "Hg17 mi
10:00 AM45 °FSunny.2 mph87%30.24 "Hg14 mi
9:00 AM40 °FFog.2 mph98%30.22 "Hg3 mi
8:00 AM41 °FFog.2 mph98%30.19 "Hg3 mi
7:00 AM42 °FPassing clouds.2 mph98%30.17 "Hg9 mi
6:00 AM45 °FLow clouds.3 mph93%30.13 "Hg25 mi
5:00 AM47 °FRain. Low clouds.6 mph92%30.10 "Hg12 mi
4:00 AM48 °FDrizzle. Low clouds.3 mph96%30.06 "Hg5 mi
3:00 AM49 °FRain. Low clouds.5 mph96%30.04 "Hg5 mi
Weather by CustomWeather, © 2014

See weather overviewHow to use our weather pages